{"data":{"norad_id":60154,"intl_designator":"2024-120V","name":"STARLINK-32145","alt_names":[],"object_type":"PAYLOAD","status":"ACTIVE","operator":null,"country":"US","launch_date":"2024-06-27","launch_site_code":"AFETR","launch_vehicle":null,"mission":null,"orbit_class":"UNKNOWN","rcs_meters":null,"size_class":null,"mass_kg":null,"dimensions":null,"purposes":["comms"],"wikipedia_slug":null,"has_3d_model":false,"image_url":null,"decayed_at":null,"tle_current":{"epoch":"2026-05-25T04:55:14.547072Z","epoch_age_seconds":53403,"freshness":"FRESH","line1":"1 60154U 24120V   26145.20502948 -.00001260  00000+0 -30427-4 0  9993","line2":"2 60154  53.1619 324.3283 0001612  64.8836 295.2332 15.30195359108098","mean_motion":15.30195359,"eccentricity":0.0001612,"inclination_deg":53.1619,"raan_deg":324.3283,"arg_perigee_deg":64.8836,"mean_anomaly_deg":295.2332,"bstar":-3.0427e-5,"rev_number":10809,"period_min":94.105631122882,"perigee_km":474.12416405643,"apogee_km":476.33368923118,"semimajor_km":6853.3659266438,"source":"CELESTRAK","updated_at":"2026-05-25T13:38:19.192183Z"}}}